Lapse_Rate
6.2 6.4 6.6 6.6 6.5 6.5 6.4 6.4 6.2 6.3 6.5 6.6 6.7 6.5 6.3 6.1 5.8 5.3 4.7 4.8 5.1 5.4 5.8 5.8 5.6 5.7 5.8 6.2 6.1 6.4 6.5 6.3 5.8 6.3 5.9 5.9 6.3 6.7 7.4 6.7 6.3 6.3 6.5
6.3 6.5 6.6 6.6 6.6 6.4 6.3 6.3 6.2 6.2 6.3 6.4 6.4 6.3 6.1 5.8 5.7 5.6 5.1 4.9 5.4 5.4 5.4 5.5 5.8 5.6 5.5 6.2 5.8 6.2 6.6 6.4 6.0 5.8 5.6 5.4 5.5 5.8 6.9 7.0 6.4 6.1 6.1
6.4 6.5 6.5 6.5 6.5 6.4 6.2 6.1 6.0 6.0 6.1 6.2 6.2 6.2 6.1 5.8 5.6 5.5 5.1 4.8 4.9 5.3 5.5 5.7 5.9 5.9 5.7 6.0 6.0 5.9 6.4 6.7 6.4 5.6 6.2 5.8 6.0 6.2 6.7 6.1 6.3 5.8 6.0
6.4 6.5 6.4 6.4 6.4 6.3 6.1 5.7 5.7 5.8 6.0 6.0 6.1 6.1 5.9 5.7 5.5 5.6 5.2 4.6 4.5 4.9 5.0 5.2 5.4 5.4 5.4 5.8 6.2 6.0 6.0 6.4 6.6 6.2 6.1 5.8 5.9 5.9 5.7 5.8 6.0 5.9 5.7
6.4 6.4 6.4 6.6 6.6 6.4 5.9 5.9 5.9 6.0 5.9 6.0 6.0 5.9 5.7 5.6 5.6 5.4 5.5 4.8 4.0 4.1 4.5 5.1 5.2 5.3 5.4 5.8 5.9 5.9 6.4 6.0 6.5 6.2 6.0 6.0 5.8 5.8 5.7 6.1 5.7 6.0 6.1
6.5 6.6 6.9 7.2 6.8 6.4 6.1 6.0 6.0 6.2 6.3 6.2 6.0 5.9 5.7 5.4 5.3 5.3 5.3 5.4 4.7 4.4 4.4 4.7 5.2 5.4 5.4 5.7 6.2 6.1 6.1 5.9 6.3 6.4 5.9 5.9 5.6 6.5 5.7 6.3 5.9 6.1 5.9
7.0 7.1 7.1 7.0 6.9 6.5 6.2 6.1 5.9 5.9 6.0 6.0 5.9 5.8 5.6 5.2 5.0 5.0 5.1 5.4 5.5 5.2 4.9 4.8 4.7 5.0 5.4 6.0 6.5 6.4 6.5 6.7 6.6 6.4 6.2 6.2 5.9 5.9 6.0 6.1 5.8 6.1 5.6
7.1 7.0 6.9 6.9 6.8 6.6 6.3 6.1 5.8 5.7 5.8 5.7 5.6 5.5 5.4 5.1 4.9 4.7 4.8 4.8 5.3 5.8 5.4 4.6 4.9 5.0 5.1 5.3 5.8 6.2 6.2 6.7 6.4 5.9 6.3 6.4 6.4 6.4 6.2 6.2 5.7 6.0 5.5
6.8 6.7 6.7 6.7 6.7 6.6 6.5 6.3 6.0 5.8 5.7 5.5 5.4 5.3 5.2 5.1 5.0 4.7 4.7 4.6 5.0 5.3 5.5 5.2 4.8 4.7 5.0 4.8 5.2 4.9 5.5 6.2 5.9 5.8 5.9 6.2 5.5 5.6 6.0 5.4 5.5 5.7 5.6
6.5 6.5 6.6 6.6 6.5 6.6 6.6 6.6 6.5 6.3 5.7 5.4 5.3 5.3 5.3 5.2 5.1 5.0 5.0 4.8 5.1 5.0 5.1 5.3 5.5 5.3 4.9 4.9 4.8 4.6 4.9 5.3 5.1 4.7 5.0 5.8 5.6 5.2 5.4 5.2 4.8 5.4 6.1
6.4 6.5 6.4 6.4 6.5 6.5 6.5 6.4 6.3 6.2 6.0 5.8 5.6 5.5 5.4 5.3 5.3 5.2 5.3 5.3 5.3 5.2 5.2 5.4 5.2 5.2 5.3 5.2 5.1 5.2 5.2 4.5 4.5 4.3 4.3 4.8 4.7 5.0 4.8 5.2 5.1 5.7 5.7
6.2 6.1 6.2 6.2 6.2 6.1 6.1 6.1 6.0 5.8 5.6 5.6 5.7 5.7 5.8 5.7 5.5 5.4 5.3 5.3 5.2 5.2 5.3 5.2 5.1 5.2 5.1 4.8 4.8 4.8 4.8 4.6 4.6 4.9 4.9 4.7 4.4 4.6 4.4 4.4 4.4 4.3 4.7
6.1 6.0 5.9 5.8 5.7 5.7 5.6 5.6 5.7 5.7 5.7 5.6 5.6 5.5 5.6 5.6 5.5 5.5 5.6 5.5 5.4 5.3 5.2 5.0 4.7 4.6 4.7 5.1 5.4 4.9 4.7 4.7 4.5 4.7 4.8 4.7 4.6 4.3 4.4 3.5 3.8 3.9 3.7
6.0 5.8 5.8 5.7 5.7 5.6 5.5 5.5 5.5 5.6 5.6 5.6 5.5 5.4 5.3 5.3 5.3 5.4 5.4 5.3 5.3 5.4 5.3 5.0 4.9 5.0 5.1 4.9 4.9 5.2 5.6 5.1 4.8 4.7 4.4 4.3 4.1 4.2 4.1 4.2 4.0 4.0 3.7
6.1 6.0 5.9 5.8 5.7 5.6 5.6 5.6 5.5 5.4 5.4 5.5 5.4 5.3 5.3 5.2 5.2 5.0 4.9 4.9 5.0 4.9 4.9 4.9 5.0 5.1 5.3 5.4 5.4 5.3 5.2 5.1 5.1 4.9 4.5 4.5 4.4 4.1 4.5 4.5 4.2 4.0 4.0
6.1 6.1 6.1 6.0 5.9 5.8 5.7 5.5 5.4 5.3 5.2 5.1 5.0 4.9 4.8 4.8 4.7 4.6 4.6 4.5 4.4 4.4 4.4 4.4 4.5 4.6 4.8 4.9 4.9 4.9 5.0 5.2 5.3 5.3 5.0 4.7 4.7 4.5 4.1 4.1 4.3 4.0 3.9
6.2 6.1 6.0 5.9 5.7 5.6 5.4 5.3 5.2 5.2 5.0 5.0 4.9 4.9 4.8 4.8 4.7 4.6 4.7 4.7 4.6 4.5 4.4 4.5 4.5 4.5 4.5 4.5 4.4 4.4 4.5 4.5 4.3 4.2 4.4 4.6 4.6 4.5 4.3 4.4 4.2 3.7 3.7
6.3 6.3 6.2 6.1 5.9 5.8 5.7 5.6 5.4 5.3 5.2 5.0 4.8 4.7 4.8 4.7 4.7 4.6 4.6 4.6 4.5 4.5 4.5 4.5 4.4 4.3 4.1 4.0 3.9 3.8 3.6 3.4 3.4 3.4 3.4 3.5 3.4 3.5 3.7 3.6 3.7 3.5 3.7
6.6 6.5 6.4 6.4 6.2 6.0 5.8 5.7 5.5 5.4 5.3 5.2 5.2 5.1 5.0 4.9 4.8 4.7 4.6 4.5 4.4 4.3 4.2 4.1 4.0 3.8 3.6 3.5 3.3 3.2 3.1 3.0 2.9 2.7 2.6 2.5 2.5 2.5 2.6 2.6 2.6 2.6 2.7
6.7 6.6 6.6 6.5 6.3 6.2 6.0 5.8 5.7 5.5 5.4 5.3 5.2 5.1 5.0 4.9 4.8 4.7 4.6 4.4 4.2 4.0 3.8 3.7 3.5 3.3 3.2 3.1 3.0 2.9 2.8 2.7 2.5 2.3 2.1 2.0 1.9 1.9 1.8 1.7 1.7 1.8 1.9
6.7 6.6 6.5 6.4 6.3 6.1 6.0 5.9 5.7 5.6 5.5 5.3 5.2 5.2 5.0 4.9 4.7 4.5 4.4 4.2 4.0 3.8 3.6 3.4 3.3 3.1 2.9 2.8 2.6 2.4 2.3 2.2 2.1 1.9 1.8 1.7 1.5 1.4 1.4 1.2 1.0 1.0 1.2
6.7 6.6 6.5 6.4 6.3 6.1 6.0 5.9 5.7 5.6 5.5 5.3 5.2 5.2 5.1 5.0 4.8 4.5 4.3 4.2 4.0 3.7 3.5 3.3 3.1 2.8 2.6 2.5 2.3 2.2 2.1 2.0 1.9 1.8 1.7 1.5 1.5 1.4 1.3 1.4 1.5 1.3 1.2
6.7 6.7 6.6 6.4 6.3 6.2 6.1 6.0 5.9 5.7 5.6 5.6 5.4 5.3 5.1 5.0 4.8 4.5 4.3 4.1 3.8 3.6 3.4 3.1 2.9 2.7 2.5 2.4 2.2 2.1 2.0 1.9 1.8 1.8 1.8 1.8 1.8 2.0 2.5 2.8 2.7 2.5 2.4
6.7 6.6 6.5 6.4 6.4 6.2 6.2 6.1 6.0 5.9 5.8 5.7 5.5 5.4 5.3 5.1 4.9 4.6 4.3 4.0 3.7 3.5 3.3 3.1 2.8 2.6 2.4 2.2 2.1 2.0 1.9 1.8 1.9 2.0 2.2 2.6 3.0 3.4 3.3 3.3 3.3 3.4 3.4
6.7 6.6 6.4 6.3 6.2 6.1 6.0 5.9 5.8 5.7 5.7 5.6 5.5 5.4 5.2 4.9 4.7 4.4 4.2 3.9 3.7 3.4 3.2 2.9 2.7 2.4 2.2 2.0 1.9 1.9 1.9 2.0 2.3 2.7 3.2 3.5 3.7 3.7 3.9 3.9 3.8 3.8 4.0
6.6 6.5 6.3 6.2 6.0 5.9 5.8 5.7 5.7 5.6 5.5 5.4 5.3 5.0 4.8 4.5 4.3 4.1 3.9 3.7 3.5 3.3 3.0 2.8 2.6 2.4 2.1 2.0 1.9 2.1 2.4 2.8 3.2 3.5 3.8 4.0 4.1 4.1 4.3 4.3 4.3 4.2 4.3
Wind_Speed
8 10 11 11 12 11 11 12 12 13 13 16 17 18 18 19 18 16 16 16 15 14 15 14 16 16 8 10 11 12 13 13 14 14 12 13 16 16 16 14 16 15 14
8 9 11 12 12 12 12 13 14 13 15 15 15 17 18 19 18 17 16 15 16 16 15 16 17 13 13 11 7 12 14 14 12 18 13 11 16 17 15 16 13 14 15
8 9 11 12 12 12 12 12 12 12 13 14 15 16 17 19 19 18 17 16 16 16 15 15 16 18 15 12 11 10 9 10 13 13 15 12 12 9 14 14 12 16 12
8 9 10 10 11 10 11 10 11 11 12 13 13 15 15 18 18 17 17 17 17 17 17 16 15 16 16 16 10 12 10 9 11 12 11 14 13 15 12 13 12 10 12
7 8 9 10 9 9 9 9 9 10 11 12 13 15 14 14 14 17 16 17 17 18 19 17 15 21 23 20 11 13 13 10 7 9 11 13 12 11 13 13 14 12 13
8 8 9 11 10 8 8 8 9 10 10 12 13 12 15 12 29 26 19 13 15 18 17 18 18 23 20 22 22 22 19 15 12 8 6 8 12 11 11 15 13 12 10
8 9 10 10 10 10 9 10 11 11 11 12 11 12 13 17 30 28 22 11 13 15 17 17 16 15 22 15 19 21 21 25 17 12 12 11 9 13 12 15 13 15 13
9 9 8 10 10 9 10 11 11 11 12 12 14 15 14 15 30 30 20 10 11 15 16 18 18 19 23 19 14 13 15 14 15 10 11 10 12 14 11 9 10 10 2
8 8 8 9 9 10 11 11 11 11 11 12 12 15 17 17 29 30 21 13 13 14 14 17 19 19 30 30 17 15 13 15 13 17 16 21 22 24 24 10 11 9 3
7 7 7 7 9 10 10 10 10 10 11 9 11 13 17 17 27 28 23 12 15 13 15 17 28 23 30 30 18 16 16 16 14 14 12 17 19 18 25 15 11 8 5
5 6 7 7 8 9 9 10 10 10 10 11 12 12 15 16 18 27 27 14 12 11 12 13 13 28 28 30 27 18 16 14 12 10 11 11 13 14 11 10 10 8 7
4 5 6 6 7 7 9 9 11 10 10 11 11 10 11 14 21 23 25 22 19 11 12 11 13 25 25 27 22 28 25 17 11 12 13 13 13 13 12 11 11 10 6
4 4 4 5 5 6 8 9 8 9 9 9 9 9 10 11 12 22 22 22 20 11 10 14 21 22 23 18 27 27 20 13 13 13 13 12 11 11 11 12 10 11 3
3 3 3 4 5 5 5 6 7 8 7 7 8 8 9 10 12 12 12 12 17 13 14 11 13 14 16 14 14 15 12 13 13 13 12 13 12 12 11 11 10 11 9
3 2 2 3 3 4 6 6 5 7 8 6 7 7 8 9 10 15 13 11 11 11 11 9 11 12 13 13 12 13 12 13 13 12 12 13 13 13 13 11 11 10 11
2 2 3 2 3 3 3 4 8 8 10 12 12 9 5 11 15 18 16 17 21 17 10 11 12 12 13 13 13 13 13 14 13 12 12 12 13 12 12 12 12 12 12
2 1 1 2 2 3 3 3 2 4 5 7 10 12 11 11 14 17 16 13 15 13 9 9 9 10 11 12 12 12 13 12 14 12 12 13 12 11 13 12 12 12 12
2 1 1 1 1 1 1 1 2 3 3 3 4 6 10 10 12 14 16 10 7 10 8 9 10 10 10 10 11 11 11 11 11 12 12 12 12 13 13 13 12 13 13
4 3 2 2 2 2 2 2 2 3 3 3 3 3 7 7 5 8 11 7 8 8 8 8 8 9 9 9 10 10 11 11 11 11 11 12 12 12 12 13 13 16 16
5 3 4 3 3 3 3 3 3 3 4 4 4 5 7 6 5 6 6 7 7 6 7 8 8 8 8 9 9 10 10 11 11 11 11 12 12 12 12 13 12 13 13
4 4 3 5 3 3 3 3 3 4 4 4 4 4 6 6 6 6 6 6 7 7 7 7 7 7 7 8 9 9 9 10 10 11 11 11 12 12 12 12 13 13 13
4 4 4 3 3 3 3 4 4 4 4 5 5 4 4 5 6 6 6 6 6 8 9 8 7 7 8 9 8 9 9 10 11 11 11 11 11 12 12 13 12 12 13
5 5 5 4 3 3 4 4 4 5 5 5 6 5 6 5 6 6 7 6 8 9 10 9 9 9 11 12 13 13 9 9 12 14 11 11 12 12 12 12 13 13 13
5 5 5 4 4 4 5 5 5 5 5 5 6 6 6 6 6 7 6 8 10 10 11 10 11 10 12 12 13 12 13 15 16 17 18 11 11 13 12 12 13 15 13
5 5 5 5 5 5 5 5 5 6 5 5 6 6 6 6 7 7 7 10 10 10 11 12 12 14 14 17 15 13 14 14 15 16 17 16 13 16 13 12 13 14 15
6 6 5 5 5 5 5 5 5 5 5 5 5 6 6 6 6 6 7 9 9 11 14 14 15 16 17 17 15 15 15 15 15 16 17 15 10 10 11 14 17 13 15
Wind_Direction
9 360 10 6 4 3 1 359 353 351 356 355 353 352 355 353 349 346 344 348 343 345 352 351 347 337 319 331 280 247 238 229 235 244 250 235 241 223 225 214 224 221 211
8 7 15 10 8 6 2 0 353 353 3 2 360 357 355 356 354 353 352 354 357 357 357 2 1 346 338 337 337 340 270 242 240 240 240 237 243 233 229 223 223 223 217
16 16 11 14 10 6 359 360 353 357 5 7 7 3 358 1 358 356 357 2 7 3 1 3 5 357 349 345 345 349 325 328 261 255 253 247 236 224 235 226 219 226 220
20 21 12 19 7 4 356 354 359 4 9 9 8 4 1 7 4 3 2 7 9 13 9 4 5 4 359 353 360 6 355 331 317 271 261 251 229 228 233 229 218 219 216
30 27 12 15 18 7 355 355 8 11 17 15 11 10 6 10 10 5 7 7 12 10 12 7 5 6 11 14 16 15 6 11 347 318 318 269 258 241 225 225 228 214 219
31 24 17 14 10 9 6 6 14 21 23 20 13 11 13 11 10 12 9 7 13 18 11 7 6 7 4 8 22 32 30 24 24 18 353 16 356 353 286 218 217 215 212
31 28 17 12 12 11 12 16 20 23 22 28 22 14 24 15 12 11 8 11 17 22 16 12 8 8 7 4 13 20 30 32 33 30 30 20 3 340 336 331 233 219 223
38 28 19 17 17 16 22 25 24 27 23 25 24 22 21 23 14 10 4 13 16 27 21 17 13 10 12 7 10 18 21 25 28 27 36 21 19 1 7 316 350 318 33
36 31 28 24 18 23 27 28 28 30 28 29 26 25 20 25 15 15 6 13 18 28 24 21 19 15 14 12 16 13 23 27 19 23 29 32 31 20 26 14 356 14 337
26 29 27 32 25 30 28 31 31 35 33 28 33 29 29 18 23 19 16 14 19 18 21 21 19 19 17 20 23 11 18 13 9 8 13 27 19 16 24 27 15 358 359
26 34 30 27 32 32 33 34 30 36 33 28 24 27 24 29 21 19 20 23 13 17 17 13 14 14 17 19 23 23 12 4 8 15 16 24 23 21 17 12 18 5 7
59 50 39 27 27 29 33 29 33 27 34 28 21 20 20 15 21 16 17 21 16 19 17 9 4 11 16 19 21 16 17 19 12 15 20 20 15 15 11 2 11 8 12
79 59 45 44 34 33 39 32 32 28 25 23 21 14 13 12 11 11 11 14 17 14 9 9 7 12 14 14 19 18 17 15 14 17 20 15 10 5 3 3 1 3 6
117 104 81 46 49 38 43 42 37 28 21 22 16 15 9 12 9 5 4 4 8 13 360 5 7 14 19 17 17 16 17 15 13 15 10 7 6 8 6 4 0 358 357
120 97 73 85 46 68 57 32 45 48 32 20 15 14 8 13 9 5 7 8 4 354 355 9 15 13 12 13 12 14 16 15 13 11 9 8 5 2 2 2 1 357 1
142 96 37 34 43 51 56 108 75 65 52 49 35 23 26 20 8 6 5 9 12 9 18 16 14 10 10 6 6 6 9 9 7 4 6 5 4 0 355 0 358 2 358
102 66 79 346 21 20 23 18 22 140 113 58 34 29 22 15 10 9 4 0 19 12 26 22 19 12 6 5 3 2 0 3 359 2 2 360 358 355 353 357 354 356 353
152 96 279 332 331 334 342 352 334 342 343 353 91 13 10 3 5 8 3 359 13 23 20 16 12 6 4 2 1 360 356 358 0 356 358 357 355 352 353 354 350 349 344
209 204 233 246 273 301 295 297 312 319 331 337 345 9 7 344 350 4 7 15 8 12 8 9 5 2 0 358 356 355 354 356 355 352 354 353 352 348 347 346 342 344 336
205 196 256 257 258 275 285 301 315 323 328 338 353 9 354 330 3 8 14 12 6 6 1 359 359 358 355 354 352 352 352 353 354 353 350 349 346 341 341 339 339 337 338
217 204 226 244 255 283 295 308 323 329 335 340 355 54 360 323 357 358 1 9 1 357 356 353 350 354 350 349 349 348 348 348 349 346 344 343 338 335 338 334 332 333 331
227 232 238 259 274 278 317 307 320 323 330 334 340 355 337 333 351 350 355 0 351 350 352 348 344 352 350 344 342 341 341 347 344 342 339 335 333 332 337 331 331 330 329
231 235 244 251 268 278 265 303 308 314 324 325 328 330 338 345 342 346 346 343 345 341 347 342 339 343 346 338 335 338 335 346 339 335 332 328 330 333 332 329 331 325 331
233 238 248 256 267 294 293 299 304 301 300 307 318 321 326 330 333 337 334 342 335 333 332 338 332 336 336 334 331 331 333 337 332 331 331 321 322 331 326 331 325 328 321
233 240 247 256 268 276 283 279 292 301 300 305 308 312 315 317 318 325 328 330 331 324 324 322 323 326 330 329 322 324 331 324 327 328 330 318 324 323 328 326 326 325 320
227 233 244 252 255 257 267 277 284 289 289 294 299 300 299 300 302 307 309 309 311 317 316 313 317 319 321 319 321 325 322 322 325 327 326 319 327 326 329 326 326 324 326